When you browse on this site, cookies collect data to enhance your experience and personalize the content and advertising you see.
Visit our Privacy Policy to learn more. By continuing to use the site, you agree to this use of cookies and data.
  • In Romania
  • List of Countries
  • For 7 days
  • Water Temperature
  • Satellite Maps
  • Weather Map
  • Weather Widgets
  • user-avatar
    Login

    Hourly Weather Olsztyn

    Today, 20 July, Saturday

    Time Temperature Precipitation Wind Pressure Humidity
    00:00 +18°C° 0.5 mm 1 mps 749 mmHg 90%
    01:00 +16°C° 0 mm 1 mps 749 mmHg 93%
    02:00 +16°C° 0.4 mm 1 mps 749 mmHg 94%
    03:00 +15°C° 0.4 mm 0 mps 749 mmHg 95%
    04:00 +14°C° 0.4 mm 0 mps 749 mmHg 95%
    05:00 +16°C° 0 mm 0 mps 750 mmHg 92%
    06:00 +17°C° 0 mm 0 mps 750 mmHg 88%
    07:00 +21°C° 0 mm 1 mps 750 mmHg 85%
    08:00 +23°C° 0.5 mm 1 mps 750 mmHg 76%
    09:00 +25°C° 0.5 mm 1 mps 750 mmHg 68%
    10:00 +26°C° 0.5 mm 1 mps 750 mmHg 60%
    11:00 +27°C° 0 mm 1 mps 750 mmHg 55%
    12:00 +28°C° 0 mm 1 mps 750 mmHg 50%
    13:00 +29°C° 0 mm 2 mps 750 mmHg 44%
    14:00 +28°C° 0 mm 2 mps 750 mmHg 46%
    15:00 +28°C° 0 mm 2 mps 750 mmHg 48%
    16:00 +28°C° 0 mm 2 mps 750 mmHg 50%
    17:00 +26°C° 0 mm 2 mps 750 mmHg 59%
    18:00 +25°C° 0 mm 2 mps 750 mmHg 68%
    19:00 +23°C° 0 mm 2 mps 750 mmHg 78%
    20:00 +21°C° 0 mm 2 mps 750 mmHg 80%
    21:00 +20°C° 0 mm 2 mps 750 mmHg 82%
    22:00 +19°C° 0 mm 2 mps 751 mmHg 84%
    23:00 +19°C° 0 mm 2 mps 750 mmHg 84%

    Tomorrow, 21 July, Sunday

    Time Temperature Precipitation Wind Pressure Humidity
    00:00 +18°C° 0 mm 2 mps 750 mmHg 83%
    01:00 +18°C° 0 mm 2 mps 750 mmHg 82%
    02:00 +18°C° 0 mm 2 mps 750 mmHg 83%
    03:00 +18°C° 0 mm 2 mps 750 mmHg 84%
    04:00 +18°C° 0 mm 2 mps 750 mmHg 85%
    05:00 +19°C° 0 mm 2 mps 750 mmHg 80%
    06:00 +21°C° 0 mm 2 mps 750 mmHg 75%
    07:00 +24°C° 0 mm 3 mps 750 mmHg 71%
    08:00 +25°C° 0 mm 3 mps 750 mmHg 65%
    09:00 +26°C° 0 mm 3 mps 750 mmHg 60%
    10:00 +28°C° 0 mm 4 mps 750 mmHg 54%
    11:00 +28°C° 0.5 mm 4 mps 750 mmHg 58%
    12:00 +27°C° 0.5 mm 3 mps 750 mmHg 61%
    13:00 +27°C° 0.5 mm 3 mps 749 mmHg 65%
    14:00 +27°C° 1.6 mm 3 mps 749 mmHg 69%
    15:00 +26°C° 1.6 mm 3 mps 750 mmHg 74%
    16:00 +25°C° 1.6 mm 2 mps 750 mmHg 78%
    17:00 +24°C° 0.5 mm 3 mps 750 mmHg 82%
    18:00 +21°C° 0.5 mm 4 mps 750 mmHg 85%
    19:00 +20°C° 0.5 mm 4 mps 750 mmHg 89%
    20:00 +19°C° 0.1 mm 4 mps 750 mmHg 91%
    21:00 +18°C° 0.1 mm 3 mps 751 mmHg 93%
    22:00 +17°C° 0.1 mm 2 mps 751 mmHg 95%
    23:00 +17°C° 0 mm 3 mps 751 mmHg 94%

    Day after tomorrow, 22 July, Monday

    Time Temperature Precipitation Wind Pressure Humidity
    00:00 +16°C° 0 mm 3 mps 751 mmHg 93%
    01:00 +15°C° 0 mm 4 mps 751 mmHg 93%
    02:00 +15°C° 0 mm 4 mps 751 mmHg 94%
    03:00 +14°C° 0 mm 4 mps 752 mmHg 95%
    04:00 +14°C° 0 mm 4 mps 752 mmHg 96%
    05:00 +15°C° 0 mm 4 mps 752 mmHg 93%
    06:00 +17°C° 0 mm 4 mps 752 mmHg 90%
    07:00 +17°C° 0 mm 5 mps 752 mmHg 87%
    08:00 +19°C° 0.1 mm 5 mps 753 mmHg 82%
    09:00 +19°C° 0.1 mm 5 mps 753 mmHg 76%
    10:00 +20°C° 0.1 mm 5 mps 753 mmHg 70%
    11:00 +21°C° 0 mm 5 mps 753 mmHg 66%
    12:00 +21°C° 0 mm 6 mps 753 mmHg 63%
    13:00 +22°C° 0 mm 6 mps 754 mmHg 59%
    14:00 +22°C° 0 mm 6 mps 754 mmHg 59%
    15:00 +22°C° 0 mm 6 mps 754 mmHg 60%
    16:00 +22°C° 0 mm 6 mps 754 mmHg 60%
    17:00 +20°C° 0 mm 5 mps 754 mmHg 66%
    18:00 +19°C° 0 mm 4 mps 754 mmHg 72%
    19:00 +18°C° 0 mm 3 mps 754 mmHg 78%
    20:00 +17°C° 0 mm 3 mps 754 mmHg 82%
    21:00 +16°C° 0 mm 3 mps 754 mmHg 86%
    22:00 +14°C° 0 mm 3 mps 754 mmHg 89%
    23:00 +14°C° 0 mm 3 mps 754 mmHg 91%

    23 July, Tuesday

    Time Temperature Precipitation Wind Pressure Humidity
    00:00 +13°C° 0 mm 3 mps 754 mmHg 93%
    01:00 +13°C° 0 mm 3 mps 754 mmHg 95%
    02:00 +13°C° 0 mm 3 mps 754 mmHg 95%
    03:00 +13°C° 0 mm 3 mps 754 mmHg 96%
    04:00 +13°C° 0 mm 3 mps 754 mmHg 97%
    05:00 +14°C° 0 mm 3 mps 754 mmHg 94%
    06:00 +17°C° 0 mm 4 mps 754 mmHg 90%
    07:00 +18°C° 0 mm 4 mps 754 mmHg 86%
    08:00 +19°C° 0 mm 4 mps 754 mmHg 82%
    09:00 +20°C° 0 mm 4 mps 754 mmHg 78%
    10:00 +21°C° 0 mm 4 mps 754 mmHg 73%
    11:00 +22°C° 0.1 mm 4 mps 754 mmHg 69%
    12:00 +23°C° 0.1 mm 4 mps 754 mmHg 65%
    13:00 +25°C° 0.1 mm 4 mps 754 mmHg 61%
    14:00 +25°C° 0 mm 4 mps 754 mmHg 62%
    15:00 +25°C° 0 mm 4 mps 754 mmHg 63%
    16:00 +25°C° 0 mm 4 mps 753 mmHg 64%
    17:00 +22°C° 0 mm 3 mps 753 mmHg 71%
    18:00 +21°C° 0 mm 3 mps 753 mmHg 77%
    19:00 +20°C° 0 mm 2 mps 753 mmHg 84%
    20:00 +18°C° 0 mm 2 mps 753 mmHg 88%
    21:00 +18°C° 0 mm 1 mps 753 mmHg 92%
    22:00 +16°C° 0 mm 1 mps 754 mmHg 96%
    23:00 +16°C° 0 mm 1 mps 754 mmHg 97%

    24 July, Wednesday

    Time Temperature Precipitation Wind Pressure Humidity
    00:00 +15°C° 0 mm 1 mps 754 mmHg 97%
    01:00 +15°C° 0 mm 1 mps 754 mmHg 97%
    02:00 +15°C° 0 mm 1 mps 753 mmHg 97%
    03:00 +15°C° 0 mm 1 mps 753 mmHg 97%
    04:00 +15°C° 0 mm 1 mps 753 mmHg 98%
    05:00 +18°C° 0 mm 1 mps 753 mmHg 92%
    06:00 +19°C° 0 mm 1 mps 753 mmHg 87%
    07:00 +21°C° 0 mm 1 mps 753 mmHg 82%
    08:00 +21°C° 0 mm 2 mps 754 mmHg 77%
    09:00 +24°C° 0 mm 2 mps 754 mmHg 72%
    10:00 +25°C° 0 mm 2 mps 754 mmHg 67%
    11:00 +26°C° 0.2 mm 2 mps 754 mmHg 68%
    12:00 +26°C° 0.2 mm 2 mps 754 mmHg 68%
    13:00 +27°C° 0.2 mm 2 mps 754 mmHg 69%
    14:00 +26°C° 0.6 mm 3 mps 753 mmHg 71%
    15:00 +26°C° 0.6 mm 3 mps 753 mmHg 73%
    16:00 +26°C° 0.6 mm 3 mps 753 mmHg 76%
    17:00 +25°C° 0.2 mm 3 mps 753 mmHg 80%
    18:00 +24°C° 0.2 mm 2 mps 753 mmHg 85%
    19:00 +23°C° 0.2 mm 2 mps 753 mmHg 89%
    20:00 +22°C° 0 mm 1 mps 753 mmHg 91%
    21:00 +21°C° 0 mm 1 mps 754 mmHg 94%
    22:00 +20°C° 0 mm 1 mps 754 mmHg 96%
    23:00 +19°C° 0 mm 1 mps 754 mmHg 97%

    25 July, Thursday

    Time Temperature Precipitation Wind Pressure Humidity
    00:00 +19°C° 0 mm 1 mps 754 mmHg 97%
    01:00 +19°C° 0 mm 1 mps 754 mmHg 97%
    02:00 +18°C° 0 mm 1 mps 755 mmHg 97%
    03:00 +18°C° 0 mm 1 mps 755 mmHg 97%
    04:00 +18°C° 0 mm 1 mps 755 mmHg 96%
    05:00 +18°C° 0 mm 0 mps 755 mmHg 92%
    06:00 +19°C° 0 mm 0 mps 755 mmHg 88%
    07:00 +21°C° 0 mm 0 mps 755 mmHg 83%
    08:00 +25°C° 0 mm 1 mps 755 mmHg 76%
    09:00 +27°C° 0 mm 1 mps 756 mmHg 68%
    10:00 +28°C° 0 mm 1 mps 756 mmHg 61%
    11:00 +29°C° 0 mm 1 mps 756 mmHg 58%
    12:00 +29°C° 0 mm 1 mps 756 mmHg 56%
    13:00 +30°C° 0 mm 1 mps 756 mmHg 53%
    14:00 +30°C° 0 mm 2 mps 755 mmHg 55%
    15:00 +30°C° 0 mm 2 mps 755 mmHg 56%
    16:00 +29°C° 0 mm 2 mps 755 mmHg 58%
    17:00 +28°C° 0 mm 2 mps 755 mmHg 66%
    18:00 +26°C° 0 mm 2 mps 755 mmHg 74%
    19:00 +25°C° 0 mm 2 mps 755 mmHg 83%
    20:00 +23°C° 0 mm 2 mps 755 mmHg 86%
    21:00 +21°C° 0 mm 2 mps 755 mmHg 90%
    22:00 +20°C° 0 mm 2 mps 755 mmHg 94%
    23:00 +20°C° 0 mm 1 mps 755 mmHg 93%
    Show more